Regional Weather Roundup
Issued by NWS

Home | Current Version | Previous Version | Graphics & Text | Print | Product List | Glossary On
Versions: 1 2 3 4 5 6 7 8 9 10 11 12 13 14 15 16 17 18 19 20 21 22 23 24 25 26 27 28 29 30 31 32 33 34 35 36 37 38 39 40 41 42 43 44 45 46 47 48 49 50
000
ASUS44 KMEG 262110
RWRTN
TENNESSEE HOURLY STATE WEATHER ROUNDUP
NATIONAL WEATHER SERVICE MEMPHIS TN
400 PM CDT SUN MAR 26 2017

TNZ002-004-019-021-049-052-054-088>092-262200-
WEST TENNESSEE

CITY           SKY/WX    TMP DP  RH WIND       PRES   REMARKS
MEMPHIS INTL   MOSUNNY   74  52  46 SW14      29.94F
NWS MEMPHIS      N/A     74 N/A N/A MISG        N/A
JACKSON        PTSUNNY   73  54  51 SW14      29.94S
DYERSBURG      SUNNY     71  53  52 SW16G22   29.95S
SOMERVILLE     MOSUNNY   75  52  43 SW12      29.94S
BOLIVAR        MOSUNNY   75  52  43 SW9G20    29.94S
PARIS          MOSUNNY   70  52  52 SW14      29.94R
HUNTINGDON     MOSUNNY   72  55  56 W13G18    29.93S
SAVANNAH       MOSUNNY   73  55  53 SW16      29.95S
$$

TNZ008-025-027-028-033-062-065-066-262200-
NORTH MIDDLE TENNESSEE

CITY           SKY/WX    TMP DP  RH WIND       PRES   REMARKS
NASHVILLE      PTSUNNY   71  53  52 SW9       29.96F
PORTLAND       PTSUNNY   70  54  56 SW12G18   29.94F
CLARKSVILLE    PTSUNNY   71  51  49 W16G22    29.92F
SMYRNA         CLOUDY    71  55  56 S10       29.97F
COOKEVILLE     CLOUDY    70  59  68 SW15G23   29.98F
GALLATIN       CLOUDY    72  54  53 S9G20     29.98S
CROSSVILLE     CLOUDY    66  53  63 VRB7      30.02S
$$

TNZ061-075-076-078-094-096-097-262200-
SOUTH MIDDLE TENNESSEE

CITY           SKY/WX    TMP DP  RH WIND       PRES   REMARKS
FAYETTEVILLE   MOSUNNY   70  57  64 SW12G22   30.01S
TULLAHOMA      PTSUNNY   66  57  72 SW12      30.01S
WINCHESTER     PTSUNNY   70  55  60 SW13      30.01S
MCMINNVILLE      N/A    N/A N/A N/A SW14      30.00F
COLUMBIA       PTSUNNY   72  54  53 SW13      29.95S
SHELBYVILLE    MOSUNNY   72  61  68 S14       30.00S
$$

TNZ017-018-042-046-047-262200-
NORTHEAST TENNESSEE

CITY           SKY/WX    TMP DP  RH WIND       PRES   REMARKS
TRI CITIES     PTSUNNY   72  49  44 S16G24    30.02R
ELIZABETHTON   CLOUDY    73  50  43 S10G18    30.03R
$$

TNZ012-013-036-069-073-074-262200-
CENTRAL EAST TENNESSEE

CITY           SKY/WX    TMP DP  RH WIND       PRES   REMARKS
KNOXVILLE      MOSUNNY   73  57  57 SW15      29.99F
OAK RIDGE      PTSUNNY   72  57  59 SW9G20    30.01S
DOWNTOWN KNOXV MOSUNNY   75  57  53 SW9G20    29.99F
GATLINBURG     MOSUNNY   73  48  40 SW18      29.99F
MORRISTOWN     MOSUNNY   68  59  73 SW9       30.00F
JACKSBORO      PTSUNNY   72  55  56 SW16G22   30.02S
$$

TNZ083-085-099-262200-
SOUTHEAST TENNESSEE

CITY           SKY/WX    TMP DP  RH WIND       PRES   REMARKS
CHATTANOOGA    MOSUNNY   75  55  49 SW18      30.00F
$$

SKY/WX REPORTED AS FAIR MEANS FEW OR NO CLOUDS BELOW
12 THOUSAND FEET.





USA.gov is the U.S. government's official web portal to all federal, state and local government web resources and services.